ARIANE 5 R/B, 42952

Orbit data source: Space-Track

ARIANE 5 R/B, 42952 is space debris in HEO originally from a launch on Fri, 29 Sep 2017 UTC launched from the French Guiana (FRGUI). Debris objects in space refer to the collection of defunct objects orbiting the Earth. Examples of debris include non-operational satellites, rocket bodies, and fragments generated from explosions, collisions, or faulty payload assembly.

Loading next visibility...
Identifier
42952, 2017-059C
Orbit
HEO
Country
Flag of FRFR
Related business
Manufacturer
ArianeGroup
Mission
Spacecraft
Bus & Motor
ESC-A, Unknown motor
Mass
~5,000 kg wet, ~5,000 kg dry
Launch date (UTC)
2017-09-29 (9 years ago)
Launch vehicle
Unknown
Launch site
French Guiana (FRGUI)
Object type
Payload
Rocket body
Debris
Shape & HBR
Cyl + 1 Nozzle, 3.5 m
Radar Cross Section
41.627 m², Large (>1 m²)

Expand to show TLE details & history
Last TLE update: 19 hours ago

TLE from 19 hours ago
0 ARIANE 5 R/B
1 42952U 17059C   26124.95128458  .00007634  00000-0  15715-2 0  9992
2 42952   6.0156 254.7023 7120642 331.3542   3.4722  2.49095994 73973
Epoch: 2026-05-04T22:49Z
TLE epoch observation values (Epoch: 2026-05-04T22:49:50.987Z)
Latitude
-0.00051°
Longitude
49.27026°
Altitude
569.143 km
Speed
9.869 km/s
True Right ascension
16h 58m 15s
True Declination
0° 00' 02"
Sunlit
Object was in full shadow at epoch
Visualization orbit readout
Latitude
Unknown
Longitude
Unknown
Altitude
Unknown
Speed
Unknown
Apparent Right ascension
Unknown
Apparent Declination
Unknown
Sunlit
N/A
Visualization observer readout
Local Sidereal Time
01:59:31
Azimuth
Unknown
Elevation
Unknown
Doppler factor
Unknown
Orbital elements
Apogee altitude
32,987.189 km
Perigee altitude
242.343 km
Semi-major axis
22,992.903 km
Eccentricity
0.71206
Inclination
6.0156°
RAAN
254.7023°
Arg. of periapsis
331.3542°
True anomaly
28.40369°
Mean anomaly
3.4722°
Eccentric anomaly
11.85044°
Mean motion
0.62252 °/min
Orbital period
578.3 mins
BSTAR
0.0015715
Loading maneuver chart data...
Computing Atmospheric mass density...
Loading historical data...
Loading historical data...
Loading historical data...
Loading historical data...
Loading historical data...
Loading historical data...
Loading historical data...
Other satellites on launch #59 in the year 2017 (2017-09-29 UTC)

Documentation

Showing up to 5 results
|